Zurück zum Katalog

DELTA 1 DEB

AktivSSO
NORAD 12284·DEBRIS·🇺🇸 United States

Gestartet Mar 5, 1978 von Vandenberg Space Force Base

Loading…

Nächste Überflüge (nächste 24 Stunden)

TLE

AktuellSource: Space-Track

Epoche: Sep 13, 2026, 19:12 UTC

1 12284U 78026EC  26256.80062214  .00000676  00000-0  42870-3 0  9997
2 12284  98.8878 335.7708 0090313 224.2715 262.9942 14.05302877316774

Verfolge DELTA 1 DEB in Echtzeit mit AllMySat

Download on the App Store